woensdag 20 november 2019 | Home | Bestenlijsten | Bestenlijsten NL | Calculators | Nieuws | Records | Uitslagen | Videos | Wedstrijden | VZA Ranglijsten | Weer |
 
Recent nieuws meer nieuws
14-11: JARO crossen 2011 – 2021
31-10: De handrem
09-10: Tim Pleijte beste in Zeeuws onderonsje in 17e Kustmarathon
07-10: Zeeuws veldloopseizoen van start op Stelleplas
03-10: Hardlopen als een dressuurpaard
23-09: Veldloopbijeenkomst
Wedstrijdagenda meer wedstrijden
za 23-11: 34e Elderschanscross Aardenburg
zo 24-11: Warandeloop Tilburg
zo 24-11: 20e Zakloop Nisse
za 30-11: Grand Slam Vlissingen
za 30-11: Scheldesportloop Terneuzen
zo 01-12: Jules Unlimitedloop Breskens
za 07-12: Aflossingsmarathon Terneuzen
za 07-12: 27e Inkelcross Kruiningen
za 14-12: Steense Rattenloop Sint Jansteen
zo 15-12: 14e Spark marathon Spijkenisse
za 21-12: 20e Aagtekerke Run
za 21-12: 2e IGA Natuurloop Axel
Recente uitslagen meer uitslagen
za 16-11: Juul Van De Walleloop Nieuw-Namen (95)
za 16-11: 19e Hobbeldebobbelloop Zoutelande
zo 10-11: Natuurloop Cadzand-Bad
za 09-11: Jeff Thuy Memorial Heikant (105)
za 09-11: 52e Mosselloop Westenschouwen (324)
za 02-11: Appelloop Axel (94)
za 02-11: 34e Moerschanscross Hulst (109)
za 26-10: 8e Stelleplascross Heinkenszand (76)
za 26-10: Piet Spruit Memorial Loop Sluiskil (78)
za 19-10: Hulsterloo Loop Nieuw-Namen (121)
za 19-10: 58e Singelloop Middelburg (108)
 
Zoek tenminste met 3 tekens van wedstrijd, datum, plaats of atleet

70e Boulevardloop

Vlissingen, woensdag 1 augustus 2007 - Organisatie: Dynamica
7.24 km
PltsNaam
Tijdkm/umin/kmm/secgap
1  Michel SchrierDynamica24.04minMse   18.050  3:195.01-
2  Pascal van TroostSluiskil24.17minMse   17.889  3:214.97+0:13
3  Arjan BeijeDelta Sport24.36minMse   17.659  3:244.91+0:32
4  Kevin de PagterDynamica24.44minMse   17.563  3:254.88+0:40
5  Niels KooleDynamica24.53minMse   17.457  3:264.85+0:49
6  Wouter JansenOost-Souburg25.19minMse   17.159  3:304.77+1:15
7  Miquel van TongerenDynamica25.27minMse   17.069  3:314.74+1:23
8  Wim van SparrentakDynamica25.30minM35   17.035  3:314.73+1:26
9  Ruud WoordTHOR25.45minM50   16.870  3:334.69+1:41
10  Erik KokDynamica25.49minM35   16.826  3:344.67+1:45
11  Erik GoossenScheldesport25.54minM35   16.772  3:354.66+1:50
12  Marius BesuijenDynamica25.57minM35   16.740  3:354.65+1:53
13  Jaap van de BokSommelsdijk26.02minM35   16.686  3:364.64+1:58
14  Erik PoppeDynamica26.09minM35   16.612  3:374.61+2:05
15  Marco GeldofDynamica26.10minM35   16.601  3:374.61+2:06
16  Henk BeusinkEtten Leur26.12minM35   16.580  3:374.61+2:08
17  Henk BruynsBreda26.16minM50   16.538  3:384.59+2:12
18  Marc RiemensDynamica26.18minM35   16.517  3:384.59+2:14
19  Bart de KosterDynamica26.20minM35   16.496  3:384.58+2:16
20  Rini BruggemanAV'5626.34minM35   16.351  3:404.54+2:30
21  Gert-Jan SmitAV'5626.37minMse   16.321  3:414.53+2:33
22  Michel van den BosDelta Sport26.39minM35   16.300  3:414.53+2:35
23  Frank van der WantMiddelburg26.42minMse   16.270  3:414.52+2:38
24  Arjo VerhageDynamica26.52minM35   16.169  3:434.49+2:48
25  Piet HopmansBergen op Zoom26.57minM50   16.119  3:434.48+2:53
26  Adriaan van KeulenMiddelburg27.02minMse   16.069  3:444.46+2:58
27  Jan ZuidwegSommelsdijk27.07minM50   16.020  3:454.45+3:03
28  Peter LimbergenAV'5627.11minMse   15.980  3:454.44+3:07
29  Cor KoetsenruijterAVO'8327.14minM50   15.951  3:464.43+3:10
30  John OverweelDynamica27.18minM50   15.912  3:464.42+3:14
31  Hans de NooijerDynamica27.31minM35   15.787  3:484.39+3:27
32  Leon JacobseDynamica27.36minMse   15.739  3:494.37+3:32
33  Gert-Jan VerbruggeAV'5627.41minMse   15.692  3:494.36+3:37
34  Lion van LuijkDynamica27.44minM35   15.663  3:504.35+3:40
35  Pieter van HorssenDynamica27.46minM50   15.645  3:504.35+3:42
36  Martijn van der WantMiddelburg27.49minM35   15.617  3:514.34+3:45
37  Rian van den BroekeDynamica27.58minM35   15.533  3:524.31+3:54
38  Gert van der VindenBiggekerke28.03minM35   15.487  3:524.30+3:59
39  Tom KoetsenruijterTHOR28.13minMse   15.395  3:544.28+4:09
40  Alex VerhulstDynamica28.15minM35   15.377  3:544.27+4:11
41  Crum van der LindenVlissingen28.21minMse   15.323  3:554.26+4:17
42  Rens BostelaarKoudekerke28.23minM35   15.305  3:554.25+4:19
43  Adriaan CoppoolseVlissingen28.26minM35   15.278  3:564.24+4:22
44  Archie StaalDelta Sport28.29minM35   15.251  3:564.24+4:25
45  Jos den HollanderAV'5628.36minM35   15.189  3:574.22+4:32
46  Fer BouwensDelta Sport28.41minM35   15.145  3:584.21+4:37
47  Frank RoosAalten28.44minM35   15.118  3:584.20+4:40
48  Wim WoutersAV'5628.47minM50   15.092  3:594.19+4:43
49  Lourens-Jan HengstAagtekerke28.49minM35   15.075  3:594.19+4:45
50  Bram de VisserDynamica28.51minM35   15.057  3:594.18+4:47
51  Ron DellebekeDynamica28.53minM35   15.040  3:594.18+4:49
52  Martin ClassensHorst28.55minM35   15.022  4:004.17+4:51
53  Brigitte NieuwlaatRoosendaal28.57minVse   15.005  4:004.17+4:53
54  Fred HendrikseKoudekerke29.00minM35   14.979  4:004.16+4:56
55  Lukas FransenMiddelburg29.03minM35   14.954  4:014.15+4:59
56  Kees van 't ZelfdeSommelsdijk29.06minM50   14.928  4:014.15+5:02
57  Adjan VerhageDynamica29.09minMse   14.902  4:024.14+5:05
58  Jos PutVlissingen29.11minM35   14.885  4:024.13+5:07
59  Ramon van der GriftVlissingen29.28minMse   14.742  4:044.10+5:24
60  Mark de BoerRotterdam29.31minM35   14.717  4:054.09+5:27
61  Wim BesuijenDynamica29.33minM50   14.701  4:054.08+5:29
62  Marc RommersDynamica29.36minM35   14.676  4:054.08+5:32
63  Leonie TonDelta Sport29.37minVse   14.667  4:054.07+5:33
64  Geert FranckeVlissingen29.39minMse   14.651  4:064.07+5:35
65  Jos GelukDelta Sport29.41minM35   14.634  4:064.07+5:37
66  Wim TempelaarDynamica29.43minM50   14.618  4:064.06+5:39
67  John GuequierreDynamica29.46minM50   14.594  4:074.05+5:42
68  Annet van der LindeAV'5629.50minV35   14.561  4:074.04+5:46
69  Vincent ToutenhoofdWestkapelle29.52minM35   14.545  4:084.04+5:48
70  Chris den ExterScheldesport29.54minM35   14.528  4:084.04+5:50
71  Chantal KooleDynamica30.06minVse   14.432  4:094.01+6:02
72  Martijn TissinkKapelle-Biezelinge30.11minMse   14.392  4:104.00+6:07
73  Pieter PoortvlietVeere30.14minMse   14.368  4:113.99+6:10
74  David DavidseMiddelburg30.16minM35   14.352  4:113.99+6:12
75  Carel StortelderGennep30.19minM35   14.329  4:113.98+6:15
76  Erwin AdanDynamica30.21minMse   14.313  4:123.98+6:17
77  Adriaan WattelMiddelburg30.22minMse   14.305  4:123.97+6:18
78  Benito BostelaarDynamica30.25minMse   14.282  4:123.97+6:21
79  Anton EngelsDynamica30.28minM35   14.258  4:123.96+6:24
80  Wim RooseGoes30.30minM50   14.243  4:133.96+6:26
81  Jon van CaspelDynamica30.33minM50   14.219  4:133.95+6:29
82  Wim StevelsMiddelburg30.38minM35   14.181  4:143.94+6:34
83  Rik HopmansEindhoven30.42minMse   14.150  4:143.93+6:38
84  Dennis PlessiusAV'5630.44minM35   14.134  4:153.93+6:40
85  Boudewijn NieuwenhuijseAV'5630.46minM35   14.119  4:153.92+6:42
86  Marc JanseMiddelburg30.50minMse   14.089  4:163.91+6:46
87  Kees GeuzeMiddelburg30.59minM50   14.020  4:173.89+6:55
88  Jack van StelAV'5631.01minM35   14.005  4:173.89+6:57
89  Jack van AspertDynamica31.04minM50   13.983  4:173.88+7:00
90  Arie VerhoevenGoirle31.06minM35   13.968  4:183.88+7:02
91  Henk van der PoelWestkapelle31.09minM50   13.945  4:183.87+7:05
92  Rini MarijnissenTHOR31.10minM60   13.938  4:183.87+7:06
93  Barend de LangeDynamica31.13minMse   13.916  4:193.87+7:09
94  Raymond ArratoonDynamica31.15minMse   13.901  4:193.86+7:11
95  Jeanine van OverveldTHOR31.17minV35   13.886  4:193.86+7:13
96  Jordy SaijaMiddelburg31.19minMse   13.871  4:203.85+7:15
97  Rob BarendrechtVoorne Atletiek31.21minM35   13.856  4:203.85+7:17
98  Seth DijkstraMiddelburg31.24minM35   13.834  4:203.84+7:20
99  Dennis BootsgezelVlissingen31.27minMse   13.812  4:213.84+7:23
100  Paco LousVlissingen31.30minMse   13.790  4:213.83+7:26
101  Henk LousVlissingen31.31minM35   13.783  4:213.83+7:27
102  Kees de VisserAagtekerke31.33minM35   13.769  4:213.82+7:29
103  Jan RomboutDynamica31.35minM35   13.754  4:223.82+7:31
104  Karel van de GruiterDynamica31.40minM60   13.718  4:223.81+7:36
105  Andre CrucqVlissingen31.41minM50   13.711  4:233.81+7:37
106  Elmar SturmKoudekerke31.46minMse   13.675  4:233.80+7:42
107  Bram WitteDynamica31.52minM35   13.632  4:243.79+7:48
108  Johan DekkerMiddelburg31.55minM35   13.610  4:253.78+7:51
109  Jacco SchroeversDynamica31.57minM35   13.596  4:253.78+7:53
110  Niek van BelzenArnemuiden32.06minM35   13.533  4:263.76+8:02
111  Jaap OeleKapelle-Biezelinge32.07minM50   13.526  4:263.76+8:03
112  Frank van BoxtelVlissingen32.12minM35   13.491  4:273.75+8:08
113  Jack SmitsDynamica32.14minM35   13.477  4:273.74+8:10
114  Frank MaenenBreda32.19minM35   13.442  4:283.73+8:15
115  Jan BostelaarWestkapelle32.22minM50   13.421  4:283.73+8:18
116  Jos MeeuwseArnemuiden32.24minM35   13.407  4:293.72+8:20
117  Roy van der VoortMiddelburg32.26minMse   13.394  4:293.72+8:22
118  Benka BaderVlissingen32.28minMse   13.380  4:293.72+8:24
119  Lena de WildeVlissingen32.31minV35   13.359  4:293.71+8:27
120  Jaques ZamenScheldesport32.33minM35   13.346  4:303.71+8:29
121  Leo ZuidwegMiddelburg32.35minM35   13.332  4:303.70+8:31
122  Peter DekkerKoudekerke32.37minMse   13.318  4:303.70+8:33
123  Digna de BoerDelta Sport32.39minV35   13.305  4:313.70+8:35
124  Piet VerhageDynamica32.41minM60   13.291  4:313.69+8:37
125  Cor van der GeestHaag Atletiek32.44minM35   13.271  4:313.69+8:40
126  Ronald de RijkeDynamica32.46minM35   13.257  4:323.68+8:42
127  Ruud KesselAVO'8032.47minM50   13.251  4:323.68+8:43
128  Peter SchurinkVlissingen32.49minM35   13.237  4:323.68+8:45
129  Rob BoogaardOostkapelle32.51minM35   13.224  4:323.67+8:47
130  Lein de KrakerDynamica32.53minM50   13.210  4:333.67+8:49
131  Rob JongeneelMiddelburg32.54minM35   13.204  4:333.67+8:50
132  Jan SteffensEmmeloord32.58minM35   13.177  4:333.66+8:54
133  Peter BilstraTyphoon33.01minM50   13.157  4:343.65+8:57
134  Co de FeijterDelta Sport33.03minM35   13.144  4:343.65+8:59
135  Koen de VriesVlissingen33.05minM50   13.130  4:343.65+9:01
136  Niels TournooijOost-Souburg33.06minMse   13.124  4:343.65+9:02
137  Piet van VaardegemWestkapelle33.08minM50   13.111  4:353.64+9:04
138  Frits MeederMiddelburg33.10minM50   13.097  4:353.64+9:06
139  Ron van BelzenDomburg33.13minM50   13.078  4:353.63+9:09
140  Jacky LuitwielerDynamica33.16minM35   13.058  4:363.63+9:12
141  Jan HellemaOost-Souburg33.18minM60   13.045  4:363.62+9:14
142  Jermaine LuitwielerDynamica33.20minMse   13.032  4:363.62+9:16
143  Simon BlaasDynamica33.22minMse   13.019  4:373.62+9:18
144  Kees MarcusseDynamica33.25minM60   13.000  4:373.61+9:21
145  Mathijs HuntinkBreda33.27minMse   12.987  4:373.61+9:23
146  Henk VlasblomRotterdam33.28minM50   12.980  4:373.61+9:24
147  Rob de PagterRitthem33.30minMse   12.967  4:383.60+9:26
148  Arthur PriemKoudekerke33.32minM35   12.954  4:383.60+9:28
149  Andre SiereveldNieuw- en Sint Joosland33.34minMse   12.941  4:383.59+9:30
150  Bram BrasserVlissingen33.36minM35   12.929  4:383.59+9:32
151  Cor MullerDelta Sport33.38minM60   12.916  4:393.59+9:34
152  Michel SinkeMiddelburg33.40minM35   12.903  4:393.58+9:36
153  Jaap LuitwielerDynamica33.42minM50   12.890  4:393.58+9:38
154  Izaak DekkerMiddelburg33.44minM35   12.877  4:403.58+9:40
155  Rijk FiliusVlissingen33.46minM50   12.865  4:403.57+9:42
156  Ad MartensGilze33.48minM60   12.852  4:403.57+9:44
157  Andre KramerYerseke33.51minM35   12.833  4:413.56+9:47
158  Pieter KarmanLewedorp33.53minM35   12.820  4:413.56+9:49
159  Matthys RoemburgOuwerkerk33.55minMse   12.808  4:413.56+9:51
160  Aart van LuijkVlissingen33.57minM35   12.795  4:413.55+9:53
161  Jan LindenbergMiddelburg33.58minM50   12.789  4:413.55+9:54
162  Sjimmie KortVlissingen34.00minMse   12.776  4:423.55+9:56
163  Boy SaijaMiddelburg34.02minM35   12.764  4:423.55+9:58
164  Ronald ApeldoornLgrentse AA34.04minMse   12.751  4:423.54+10:00
165  Anthony van den BergVlissingen34.06minM35   12.739  4:433.54+10:02
166  Willy HeynenDalen34.09minM35   12.720  4:433.53+10:05
167  Glenn HoffmanScheldesport34.14minM35   12.689  4:443.52+10:10
168  Anja VogelMiddelburg34.15minV35   12.683  4:443.52+10:11
169  Aswin KoningsDynamica34.19minM35   12.659  4:443.52+10:15
170  Michela van StelAV'5634.21minV35   12.646  4:453.51+10:17
171  Steven RoemburgZierikzee34.24minMse   12.628  4:453.51+10:20
172  Marcel RichardZoutelande34.27minM50   12.610  4:453.50+10:23
173  Michael RomijnGoes34.29minM35   12.597  4:463.50+10:25
174  Jan van DoornAV'5634.32minM50   12.579  4:463.49+10:28
175  Jan-Kees de MeesterHansweert34.33minM35   12.573  4:463.49+10:29
176  Rene DuinkerkeYerseke34.46minMse   12.495  4:483.47+10:42
177  Hans CrielaardOost-Souburg34.49minMse   12.477  4:493.47+10:45
178  Suzanne GeschiereDynamica34.53minV35   12.453  4:493.46+10:49
179  Frans MaasHelmond34.56minM35   12.435  4:503.45+10:52
180  Aart van de BergGapinge35.09minMse   12.358  4:513.43+11:05
181  Hans PluijlaarDynamica35.11minM60   12.347  4:523.43+11:07
182  Evert EikenhoutOost-Souburg35.15minM35   12.323  4:523.42+11:11
183  Leo van LuijkVlissingen35.18minM60   12.306  4:533.42+11:14
184  Carlos van de BergVlissingen35.20minM60   12.294  4:533.42+11:16
185  Jan VosVlissingen35.24minM60   12.271  4:533.41+11:20
186  Ineke TempelaarVlissingen35.30minV35   12.237  4:543.40+11:26
187  Wilco BooneYerseke35.34minM35   12.214  4:553.39+11:30
188  Ruud Fredrikss-Heerenhoek35.36minM50   12.202  4:553.39+11:32
189  Hans SuilenMiddelharnis35.38minM35   12.191  4:553.39+11:34
190  Daan van MilligenDelta Sport35.40minM50   12.179  4:563.38+11:36
191  Marietta van AnrooijAV'5635.43minM35   12.162  4:563.38+11:39
192  Andre CaljouwMiddelburg36.03minM60   12.050  4:593.35+11:59
193  Wim van SluijsDynamica36.14minM35   11.989  5:003.33+12:10
194  Peter WisseAagtekerke36.22minMse   11.945  5:013.32+12:18
195  Hans WijkhuisMeliskerke36.24minMse   11.934  5:023.32+12:20
196  Jan WiedenhoffMiddelburg36.28minM60   11.912  5:023.31+12:24
197  Irma KarelseMiddelburg36.32minMse   11.891  5:033.30+12:28
198  Leo KayserScheldesport36.36minM35   11.869  5:033.30+12:32
199  Lenie van KlevenVlissingen36.38minV35   11.858  5:043.29+12:34
200  Ingrid KoeneYerseke36.43minV35   11.831  5:043.29+12:39
201  Cor LockefeerDynamica36.53minM50   11.778  5:063.27+12:49
202  Nicole KoningsDynamica36.55minV35   11.767  5:063.27+12:51
203  Ronald VoersmaKollum37.03minM35   11.725  5:073.26+12:59
204  Lisette AntheunisseDynamica37.10minVse   11.688  5:083.25+13:06
205  Corina LievenseMiddelburg37.14minV35   11.667  5:093.24+13:10
206  Jan de GraafVlissingen37.20minM60   11.636  5:093.23+13:16
207  Marco TaxDomburg37.22minM35   11.625  5:103.23+13:18
208  Jan RooseGoes37.24minM50   11.615  5:103.23+13:20
209  Marco BehageGoes37.27minMse   11.599  5:103.22+13:23
210  Harmen van EijzerenMeliskerke37.30minMse   11.584  5:113.22+13:26
211  Fred KoningApeldoorn37.32minM50   11.574  5:113.21+13:28
212  Luc MinderhoudSint Oedenrode37.36minM35   11.553  5:123.21+13:32
213  Claudia BraetVlissingen37.41minV35   11.528  5:123.20+13:37
214  Jan HakTyphoon37.44minM50   11.512  5:133.20+13:40
215  Ronald BeiloVlissingen37.46minM50   11.502  5:133.20+13:42
216  Johan DaneVlissingen37.48minM50   11.492  5:133.19+13:44
217  Sebastian NijssenDynamica37.57minMse   11.447  5:153.18+13:53
218  Jan MaranusDynamica37.59minM60   11.437  5:153.18+13:55
219  Jan VerkerkTyphoon38.02minM50   11.422  5:153.17+13:58
220  Christian JobseMiddelburg38.12minMse   11.372  5:173.16+14:08
221  John van AnrooijAV'5638.20minM35   11.332  5:183.15+14:16
222  Peter GerritseVlissingen38.23minM35   11.317  5:183.14+14:19
223  Niels HuysmansSprint38.25minMse   11.308  5:183.14+14:21
224  Annelies van der PerkWestkapelle38.27minV35   11.298  5:193.14+14:23
225  Kees VerburgHansweert38.33minM35   11.268  5:193.13+14:29
226  Niels JongepierMiddelburg38.49minMse   11.191  5:223.11+14:45
227  Anja OvaaVlissingen38.58minVse   11.148  5:233.10+14:54
228  Emmy van CaspelVlissingen39.00minV35   11.138  5:233.09+14:56
229  Nel VerhoevenDynamica39.02minV35   11.129  5:233.09+14:58
230  Bram de RijkeDynamica39.17minM60   11.058  5:263.07+15:13
231  Noortje KetelaarsDomburg39.19minVse   11.049  5:263.07+15:15
232  Wietse HaakKortgene39.22minM50   11.035  5:263.07+15:18
233  Jacky de RijkeVlissingen39.26minM50   11.016  5:273.06+15:22
234  Marion GoossenScheldesport39.35minV35   10.974  5:283.05+15:31
235  Diana van BelzenDomburg39.39minV35   10.956  5:293.04+15:35
236  Bert van de HeulGorinchem39.44minM35   10.933  5:293.04+15:40
237  Sander JanseMiddelburg40.20minM35   10.770  5:342.99+16:16
238  Liselot KayserScheldesport40.28minVse   10.735  5:352.98+16:24
239  Theo KootstraWaarde40.35minM60   10.704  5:362.97+16:31
240  Christine MeuleVlissingen40.54minVse   10.621  5:392.95+16:50
241  Willem van DortDomburg40.56minM35   10.612  5:392.95+16:52
242  Harmanna DoedensGoes41.59minVse   10.347  5:482.87+17:55
243  Jan Kees de VisserAagtekerke42.55minMse   10.122  5:562.81+18:51
244  Armand ZwiersGAC Hilversum42.57minM35   10.114  5:562.81+18:53
245  Martijn ScheenDe Bilt44.45minMse   9.707  6:112.70+20:41
246  Anton SwennenVlissingen45.37minMse   9.523  6:182.65+21:33
247  Machiel SinkeKrabbendijke45.43minM60   9.502  6:192.64+21:39
248  Ellen StrooVlissingen45.46minV35   9.492  6:192.64+21:42
249  Mirjam ZwanenburgAlkmaar46.09minVse   9.413  6:222.61+22:05
250  Cees LoonenGorinchem46.34minM50   9.329  6:262.59+22:30
251  Miranda ZwiersLoosdrecht47.17minV35   9.187  6:322.55+23:13
Mannen: 221 (88.05%) => M35=99 - M50=45 - M60=18 - Mse=59
Vrouwen: 30 (11.95%) => V35=20 - Vse=10

Overzicht Top3, winnares en aantal deelnemers van aanwezige edities

JaarWinnaarTijd2eTijd 3eTijdWinnaresTijd#

7.24 km

2019Tim van den Broeke23:04Tim Pleijte23:10Ronnie Overgaauw23:34Samantha Luitwieler27:00269
2018Patrick de Vos23:17Tim Pleijte23:20Erwin Harmes24:07Monique Verschuure27:05257
2017Tim van den Broeke22:46Erwin Adan23:00Erwin Harmes23:21Marianne de Kok27:53274
2016Tim Pleijte23:20Erwin Harmes23:32Tim van den Broeke23:50Marianne de Kok27:28330
2015Tim Pleijte23:36Erwin Harmes23:54Martijn de Kok24:17Sabine van de Reijt26:08315
2014Erwin Harmes22:15Tim Pleijte22:51Erwin Adan23:18Anjolie Engels26:34301
2013Tim Pleijte23:01Erwin Harmes23:32Michel Schrier24:15Juriena de Vries28:23303
2012Tom Koetsenruijter22:47Tim Pleijte22:52Ronnie Overgaauw23:13Anjolie Engels25:47294
2011Tim Pleijte22:15Erwin Harmes23:20Erwin Adan23:33Anjolie Engels26:06293
2010Tim Pleijte23:56Arjan Beije24:00Jesper Francke24:10Anjolie Engels27:32286
2009Wim Padmos22:47Michel Schrier22:50Tim Pleijte22:54Sandra de Block26:50348
2008Pascal van Troost23:25Michel Schrier23:40Arjan Beije23:47Anjolie Engels28:01258
2007Michel Schrier24:04Pascal van Troost24:17Arjan Beije24:36Brigitte Nieuwlaat28:57251
2006Jeroen van Damme22:37Morris Wols23:42Niels Koole23:51Marisa Hopmans27:22236
2005Huub Maas22:14Colin Bekers22:22Mark Kwakernaak22:40Anjolie Engels27:18221
2004Arjan Beije23:56Edwin Stolk24:23Miquel van Tongeren24:33Anjolie Engels27:19177
2003Wim Padmos23:05Sébastièn Schletterer23:18Mark Kwakernaak23:20Marlies Kort26:21167
2002Niels Koole23:27Arjan Beije23:29Fouad Fertoute23:44Anja van der Heyden26:50116
2001Arjan Beije23:23Niels Koole23:29Pieter Rijnders23:45Marlies Kort25:59130
2000John Vermeule23:21Jack Hopmans23:26Alwin Vermeulen23:29Edith Gerards28:4579
1999Alwin Vermeulen23:25Erik Goossen23:39Jan de Bart23:51Marlies Kort27:1781
1998Miquel van Tongeren23:22Sepp Vermeulen23:24Theo Rabout23:36Karin Bastian28:0774

Snelheid en tempo zijn berekend op de vermelde afstand. Bij een onjuiste afstand wijken deze uiteraard af!

Fouten melden via info@atletiekzeeland.nl Categorie fout? Mail dan geboortedatum. (geldt alleen voor Zeeuwen)

De server had 0.574 seconden nodig om deze lijst met 251 prestaties samen te stellen.

Terug naar boven


 
Laatste reacties:
Jan Roose: De Belangrijkste Kilometer..
Jan Roose: De Belangrijkste Kilometer..
Jos den Hollander: De Belangrijkste Kilometer..
Jan Heshof: De Belangrijkste Kilometer..
Recente Zeeuwse prestaties meer prestaties
17-11: Kievitloop Bergen op Zoom (7)
15 km Lion Baas (PR 1.00.39)1.01.34  M40
10 km Hein van Uffelen (PR)39.27  Mse
10 km Theo den Herder (PR 37.27)43.00  M65
10 km Peter Noordijke (PR)47.04  M55
5 km Robin Jonkers (PR)19.34  Mse
5 km Martin Stroosnijder (PR 20.58)21.19  Mse
5 km Tara Schuilwerve (PR)22.11  Vse
17-11: Marathon Kasterlee  (3)
marath Erwin Harmes (PR 2.29.50)2.38.55  M35
marath Johan van de Woestijne (PR 3.05.00)3.24.59  Mse
marath Marcel Adriaanse (PR 2.57.46)3.31.35  M45
17-11: 36e Zevenheuvelenloop Nijmegen (109)
11-11: Halve Marathon Deinze-Aalter  (5)
halve Wim van Sparrentak (PR 1.14.32)1.20.47  M50
halve Maurice Steketee (PR 1.36.11)1.41.40  M35
halve John Guequierre (PR 1.17.01)1.51.07  M65
halve Hans Minnaard (PR 1.39.20)1.52.34  M55
halve Piet Beijer (PR 1.46.43)2.02.23  M70
03-11: 14e Drechtstadloop Dordrecht (11)
03-11: New York City Marathon  (7)
03-11: Marathon Nice (1)
03-11: Marathon Porto (1)
27-10: 37e Marathon Brabant Etten-Leur (83)
27-10: Frankfurt Marathon  (1)
20-10: 44e Amsterdam Marathon  (24)
14-10: Kermisloop Putte (4)
13-10: Rondje Seppe Bosschenhoofd (5)
13-10: Marathon Chicago (1)
13-10: 36e Marathon Eindhoven  (14)
13-10: 4 Mijl van Groningen  (2)
13-10: Marathon Köln  (2)
06-10: 34e Singelloop Breda  (35)
06-10: Loch Ness Marathon Inverness (5)
06-10: Marathon Perth (1)
06-10: Singelloop Utrecht (3)
28-09: Halve van Katwijk  (2)
22-09: 35e Dam tot Damloop Amsterdam (1)
22-09: Berenloop Beernem (10)
Atletiek Zeeland © 2019